Location: Baia Mare
(47.6567°N, 23.5850°E)
Time: 07:00:20
(UTC+03:00)

ISS - Pass Details

Date: 30 May 2018
Orbit: 402 x 407 km, 51.6° (Epoch: 24 May)

Event Time Altitude Azimuth Distance (km) Brightness Sun altitude
Rises 21:52:51 0° 281° (W) 2,322 1.2 -6.0°
Reaches altitude 10° 21:55:01 10° 290° (WNW) 1,461 0.3 -6.3°
Drops below altitude 10° 22:01:13 10° 72° (ENE) 1,459 -1.3 -7.0°
Enters shadow 22:03:44 -1° 81° (E) 2,460 -0.2 -7.3°
Exits shadow 22:35:56 -70° 102° (ESE) 12,381 3.6 -11.0°
Maximum altitude 23:34:54 71° 20° (NNE) 429 -3.7 -16.3°
